Change the Weather History Date:

Thursday, August 1, 2013

  Actual Average Record
Temperature  
Mean Temperature 82 °F 83 °F  
Max Temperature 90 °F 92 °F 103 °F (1986)
Min Temperature 73 °F 73 °F 62 °F (1997)
Degree Days  
Heating Degree Days 0 0  
Month to date heating degree days 0 0  
Since 1 June heating degree days 0 0  
Since 1 July heating degree days 0 0  
Cooling Degree Days 17 18  
Month to date cooling degree days 17 18  
Year to date cooling degree days 1316 1366  
Since 1 June cooling degree days 953 1008  
Growing Degree Days 31 (Base 50)    
Moisture  
Dew Point 72 °F    
Average Humidity 73    
Maximum Humidity 93    
Minimum Humidity 52    
Precipitation  
Precipitation 0.22 in 0.13 in 2.38 in (1983)
Month to date precipitation 0.22 0.13  
Year to date precipitation 41.96 29.10  
Sea Level Pressure  
Sea Level Pressure 29.97 in    
Wind  
Wind Speed 3 mph (WSW)    
Max Wind Speed 17 mph    
Max Gust Speed 24 mph    
Visibility 9 miles    
Events Rain    
T = Trace of Precipitation, MM = Missing Value Source: NWS Daily Summary

Daily Weather History Graph

Daily Weather History Graph

Search for Another Location

Airport or City:

Trip Planner

Search our weather history database for the weather conditions in past years. The results will help you decide how hot, cold, wet, or windy it might be!

Date:

Astronomy

Aug. 01, 2013 Rise Set
Actual Time 6:54 AM EDT 8:37 PM EDT
Civil Twilight 6:27 AM EDT 9:04 PM EDT
Nautical Twilight 5:55 AM EDT 9:36 PM EDT
Astronomical Twilight 5:21 AM EDT 10:10 PM EDT
Moon 2:31 AM EDT (8/1) 4:43 PM EDT (8/1)
Length of Visible Light 14h 36m
Length of Day
13h 43m
Waning Crescent, 23% of the Moon is Illuminated
Aug 1
Waning Crescent
Aug 6
New
Aug 14
First Quarter
Aug 20
Full
Aug 28
Last Quarter

Hourly Weather History & Observations

Time (EDT) Temp. Heat Index Dew Point Humidity Pressure Visibility Wind Dir Wind Speed Gust Speed Precip Events Conditions
12:51 AM 73.9 °F - 72.0 °F 93% 30.02 in 10.0 mi SSW 3.5 mph - 0.01 in   Mostly Cloudy
1:06 AM 73.4 °F - 71.6 °F 94% 30.03 in 10.0 mi Calm Calm - N/A   Overcast
1:23 AM 73.4 °F - 71.6 °F 94% 30.02 in 10.0 mi SSW 3.5 mph - N/A   Overcast
1:51 AM 73.9 °F - 72.0 °F 93% 29.99 in 10.0 mi SSW 4.6 mph - N/A   Overcast
2:51 AM 73.9 °F - 71.1 °F 91% 29.99 in 10.0 mi SSW 3.5 mph - N/A   Overcast
3:19 AM 73.4 °F - 71.6 °F 94% 30.00 in 9.0 mi Calm Calm - N/A   Overcast
3:51 AM 73.9 °F - 71.1 °F 91% 29.99 in 6.0 mi Calm Calm - 0.01 in Rain Light Rain
4:12 AM 73.4 °F - 71.6 °F 94% 30.00 in 4.0 mi Calm Calm - 0.00 in Rain Rain
4:37 AM 73.4 °F - 71.6 °F 94% 30.00 in 1.8 mi Calm Calm - 0.05 in Rain Heavy Rain
4:42 AM 73.4 °F - 71.6 °F 94% 29.99 in 2.0 mi SSE 3.5 mph - 0.07 in Rain Rain
4:51 AM 73.9 °F - 71.1 °F 91% 29.97 in 6.0 mi SSE 3.5 mph - 0.08 in Rain Light Rain
5:12 AM 73.4 °F - 71.6 °F 94% 29.97 in 5.0 mi SE 4.6 mph - 0.01 in Rain Light Rain
5:26 AM 73.4 °F - 71.6 °F 94% 29.97 in 6.0 mi SE 5.8 mph - 0.01 in   Mostly Cloudy
5:42 AM 73.4 °F - 71.6 °F 94% 29.97 in 8.0 mi ESE 4.6 mph - 0.01 in   Mostly Cloudy
5:51 AM 73.0 °F - 71.1 °F 93% 29.96 in 9.0 mi ESE 3.5 mph - 0.01 in   Mostly Cloudy
6:51 AM 73.9 °F - 70.0 °F 87% 29.99 in 10.0 mi Calm Calm - 0.00 in   Overcast
7:21 AM 73.4 °F - 71.6 °F 94% 30.00 in 9.0 mi Calm Calm - N/A   Overcast
7:51 AM 73.9 °F - 71.1 °F 91% 29.99 in 9.0 mi Calm Calm - N/A   Mostly Cloudy
8:51 AM 75.9 °F - 72.0 °F 87% 29.99 in 9.0 mi Calm Calm - N/A   Clear
9:14 AM 75.2 °F - 71.6 °F 89% 30.00 in 9.0 mi Calm Calm - N/A   Partly Cloudy
9:51 AM 79.0 °F - 73.0 °F 82% 29.99 in 10.0 mi WSW 4.6 mph - N/A   Scattered Clouds
10:51 AM 82.0 °F 86.7 °F 72.0 °F 71% 29.99 in 10.0 mi Variable 5.8 mph - N/A   Partly Cloudy
11:39 AM 82.4 °F 87.2 °F 71.6 °F 70% 29.99 in 10.0 mi West 8.1 mph - N/A   Mostly Cloudy
11:51 AM 82.0 °F 86.3 °F 71.1 °F 69% 29.97 in 10.0 mi West 6.9 mph - N/A   Mostly Cloudy
12:09 PM 84.2 °F 89.6 °F 71.6 °F 66% 29.98 in 10.0 mi West 4.6 mph - N/A   Mostly Cloudy
12:32 PM 84.2 °F 88.4 °F 69.8 °F 62% 29.98 in 10.0 mi NW 3.5 mph - N/A   Mostly Cloudy
12:51 PM 84.9 °F 90.7 °F 72.0 °F 65% 29.96 in 10.0 mi WSW 5.8 mph - N/A   Overcast
1:03 PM 84.2 °F 89.6 °F 71.6 °F 66% 29.97 in 10.0 mi WNW 5.8 mph - N/A   Mostly Cloudy
1:51 PM 86.0 °F 91.5 °F 71.1 °F 61% 29.95 in 10.0 mi WNW 5.8 mph - N/A   Mostly Cloudy
2:51 PM 89.1 °F 95.0 °F 71.1 °F 55% 29.94 in 10.0 mi NNW 6.9 mph - N/A   Scattered Clouds
3:25 PM 80.6 °F 85.4 °F 73.4 °F 79% 29.95 in 10.0 mi Calm Calm - 0.12 in   Mostly Cloudy
3:51 PM 87.1 °F 94.5 °F 73.0 °F 63% 29.92 in 10.0 mi NW 3.5 mph - 0.12 in   Scattered Clouds
4:51 PM 88.0 °F 95.6 °F 73.0 °F 61% 29.91 in 10.0 mi NNW 5.8 mph - N/A   Partly Cloudy
5:51 PM 89.1 °F 95.0 °F 71.1 °F 55% 29.90 in 10.0 mi Calm Calm - N/A   Partly Cloudy
6:51 PM 89.1 °F 94.1 °F 70.0 °F 53% 29.90 in 10.0 mi WNW 8.1 mph - N/A   Partly Cloudy
7:51 PM 88.0 °F 92.9 °F 70.0 °F 55% 29.91 in 10.0 mi Calm Calm - N/A   Clear
8:51 PM 86.0 °F 91.5 °F 71.1 °F 61% 29.92 in 10.0 mi Calm Calm - N/A   Partly Cloudy
9:51 PM 84.0 °F 90.2 °F 73.0 °F 69% 29.94 in 10.0 mi Calm Calm - N/A   Clear
10:51 PM 81.0 °F 86.2 °F 73.9 °F 79% 29.95 in 10.0 mi Calm Calm - N/A   Clear
11:51 PM 80.1 °F 84.5 °F 73.9 °F 81% 29.94 in 10.0 mi Calm Calm - N/A   Clear